AirNav   Air Wisconsin Up To $57,000 Bonus
 
 583 users online  

15MA Canapitsit Airport
Gosnold, Massachusetts, USA

GOING TO GOSNOLD?


FAA INFORMATION EFFECTIVE 08 OCTOBER 2020

Location

FAA Identifier: 15MA
Lat/Long: 41-25-20.3880N 070-54-34.1240W
41-25.339800N 070-54.568733W
41.4223300,-70.9094789
(estimated)
Elevation: 10 ft. / 3 m (estimated)
Variation: 15W (1990)
From city: 1 mile E of GOSNOLD, MA
Time zone: UTC -4 (UTC -5 during Standard Time)
Zip code: 02713

Airport Operations

Airport use: Private use. Permission required prior to landing
Activation date: 01/1993
Control tower: no
ARTCC: BOSTON CENTER
FSS: BRIDGEPORT FLIGHT SERVICE STATION
Attendance: UNATNDD
Wind indicator: yes
Segmented circle: no

Airport Communications

WX ASOS at MVY (13 nm E): 126.25 (508-696-6988)
WX ASOS at EWB (15 nm N): 126.85 (508-992-0195)
WX ASOS at UUU (18 nm W): 132.075 (401-846-5910)

Nearby radio navigation aids

VOR radial/distance  VOR name  Freq  Var
MVYr292/13.4MARTHAS VINEYARD VOR/DME114.5015W
PVDr142/29.6PROVIDENCE VOR/DME115.6014W
SEYr078/33.7SANDY POINT VOR/DME117.8015W

Airport Services

Runway Information

Runway 12/30

Dimensions: 700 x 20 ft. / 213 x 6 m
Surface: turf
RUNWAY 12  RUNWAY 30
Traffic pattern: leftleft

Airport Ownership and Management from official FAA records

Ownership: Privately-owned
Owner: MELBOURNE S DORR
15 GILMORE RD
SOUTHBOROUGH, MA 01772
Phone 508-877-0030
Manager: MELBOURNE S DORR
15 GILMORE RD
SOUTHBOROUGH, MA 01772
Phone 508-877-0030

Additional Remarks

HIGH GRASS IN PRIMARY SURFACE OF BOTH RYS. HIGH DUNE IN RY 12 APCH.
FOR CD CTC BOSTON APCH AT 603-594-5551, WHEN APCH CLSD CTC BOSTON ARTCC AT 603-879-6859..

Instrument Procedures

There are no published instrument procedures at 15MA.

Some nearby airports with instrument procedures:

KMVY - Martha's Vineyard Airport (13 nm E)
KEWB - New Bedford Regional Airport (15 nm N)
KUUU - Newport State Airport (18 nm W)
KFMH - Cape Cod Coast Guard Air Station (22 nm NE)
KOQU - Quonset State Airport (25 nm NW)
 
Loc | Ops | Rwys | IFR | FBO | Links
Com | Nav | Svcs | Stats | Notes
Area around 15MA (Canapitsit Airport)
 
Road maps at: MapQuest Bing Google
 
Aerial photo
No photo
 
Sectional chart

 
Airport distance calculator
Flying to Canapitsit Airport? Find the distance to fly.

From to 15MA

Sunrise and sunset
Times for 21-Oct-2020
 Local
(UTC-4)
 Zulu
(UTC)
Morning civil twilight06:3610:36
Sunrise07:0411:04
Sunset17:5221:52
Evening civil twilight18:2022:20

Current date and time
Zulu (UTC)  21-Oct-2020 04:39:06
Local (UTC-4)  21-Oct-2020 00:39:06
 
METAR
KMVY 
13nm E 
210413Z AUTO 00000KT 3/4SM R24/3500V5500FT BR SCT002 BKN005 OVC012 17/17 A3028 RMK AO2 T01720172 $
KEWB 
16nm N 
210406Z AUTO 00000KT 1SM R05/1800V2600FT BR BKN003 BKN008 OVC046 15/14 A3027 RMK AO2 T01500144
KUUU 
18nm W 
210353Z AUTO 00000KT M1/4SM FG VV001 16/16 A3027 RMK AO2 SLP250 T01560156
KFMH 
22nm NE 
210245Z 00000KT 1/2SM FG OVC002 16/16 A3028
KOQU 
25nm NW 
210250Z 19005KT 21/2SM BR OVC004 17/17 A3027 RMK LAST
TAF
KFMH 
22nm NE 
210213Z 2102/2124 00000KT 1/4SM FG OVC002 FM211100 17004KT 1SM -DZ BR OVC003 FM211300 17005KT 2SM BR BKN003 FM211600 19009KT 6SM BR BKN008
NOTAMs
Click for the latest NOTAMs
NOTAMs are issued by the DoD/FAA and will open in a separate window not controlled by AirNav.

 

 
 

Would you like to see your business listed on this page?

 If your business provides an interesting product or service to pilots, flight crews, aircraft, or users of the Canapitsit Airport, you should consider listing it here.  To start the listing process, click on the button below
 
Add a business
 

Other Pages about Canapitsit Airport

Update a link
 
Copyright © AirNav, LLC. All rights reserved. Privacy Policy  Contact